This is the latest recevied weather packets stored in our database for station/object LA3SP-1. If no packets are shown the sender has not sent any weather packets the latest 10 day(s).
| Time | Temp. | Humidity | Pressure | Rain* | Wind** | Luminosity | Snow |
|---|---|---|---|---|---|---|---|
| 1777645698 | 13.33° C | 44% | 1016.1 hPa | 0 mm | - | - | - |
| 1777644495 | 13.89° C | 43% | 1016.3 hPa | 0 mm | - | - | - |
| 1777643894 | 13.89° C | 42% | 1016.3 hPa | 0 mm | - | - | - |
| 1777643292 | 14.44° C | 42% | 1016.4 hPa | 0 mm | - | - | - |
| 1777642692 | 14.44° C | 41% | 1016.5 hPa | 0 mm | - | - | - |
| 1777641488 | 15° C | 40% | 1016.5 hPa | 0 mm | - | - | - |
| 1777639684 | 16.11° C | 39% | 1016.7 hPa | 0 mm | - | - | - |
| 1777639083 | 16.11° C | 39% | 1016.8 hPa | 0 mm | - | - | - |
| 1777638481 | 16.11° C | 40% | 1017 hPa | 0 mm | - | - | - |
| 1777637880 | 16.11° C | 39% | 1017.2 hPa | 0 mm | - | - | - |
| 1777637278 | 16.11° C | 39% | 1017.3 hPa | 0 mm | - | - | - |
| 1777636677 | 15.56° C | 40% | 1017.5 hPa | 0 mm | - | - | - |
| 1777635474 | 15.56° C | 40% | 1017.6 hPa | 0 mm | - | - | - |
| 1777634873 | 15.56° C | 40% | 1017.6 hPa | 0 mm | - | - | - |
| 1777634271 | 15.56° C | 40% | 1017.6 hPa | 0 mm | - | - | - |
| 1777633670 | 15.56° C | 41% | 1017.6 hPa | 0 mm | - | - | - |
| 1777632468 | 15° C | 42% | 1018.1 hPa | 0 mm | - | - | - |
| 1777631265 | 14.44° C | 43% | 1018.1 hPa | 0 mm | - | - | - |
| 1777630663 | 13.89° C | 45% | 1018.2 hPa | 0 mm | - | - | - |
| 1777630062 | 13.33° C | 44% | 1018.4 hPa | 0 mm | - | - | - |
| 1777629460 | 12.78° C | 44% | 1018.4 hPa | 0 mm | - | - | - |
| 1777628859 | 12.22° C | 46% | 1018.5 hPa | 0 mm | - | - | - |
| 1777627055 | 11.67° C | 45% | 1018.4 hPa | 0 mm | - | - | - |
| 1777626454 | 11.11° C | 47% | 1018.5 hPa | 0 mm | - | - | - |
| 1777626066 | 11.11° C | 47% | 1018.7 hPa | 0 mm | - | - | - |
* Rain latest 24 hours (hover to see other rain measurements)
** Current wind speed in m/s (hover to see current wind gust speed)